Dewpoint
69 69 69 69 69 70 69 68 69 70 69 70 71 72 72 72 73 73 73 73 74 75 75 75 76 75 75 75 75 75 75 74 73 73 72 72 71 69 68 67 66 64
69 69 70 70 70 70 71 70 69 70 71 70 72 72 73 73 72 73 73 73 74 74 75 75 75 75 75 75 74 74 74 74 73 74 72 72 71 69 68 67 67 65
69 69 69 70 69 70 70 71 70 70 71 71 72 72 73 73 72 72 73 73 73 74 74 75 75 75 75 75 74 74 74 74 73 73 73 72 71 69 68 68 68 66
70 70 69 70 70 70 70 71 71 71 70 71 72 73 73 73 73 72 72 75 73 74 74 75 75 75 75 75 74 74 74 74 73 73 73 73 72 69 68 68 68 68
70 70 70 70 70 71 71 71 71 71 70 70 72 73 73 73 73 72 72 73 73 74 74 74 75 75 75 75 74 74 74 74 73 73 73 72 72 70 68 68 68 67
70 70 70 70 70 71 71 71 72 72 71 71 71 73 73 73 73 73 72 72 73 74 74 74 74 75 75 75 74 74 73 74 73 73 73 72 72 70 69 69 68 68
70 70 70 70 70 71 71 71 71 72 72 71 71 72 73 73 73 73 73 72 72 73 74 74 74 74 74 74 74 74 73 73 74 73 73 72 72 71 69 68 68 68
70 70 70 71 70 70 70 70 70 71 72 72 72 72 73 73 73 73 73 72 72 73 73 74 74 74 74 74 74 74 73 73 74 73 73 72 72 71 70 69 68 68
70 70 71 71 70 70 70 70 70 70 71 73 72 72 73 73 73 72 72 72 72 73 73 73 74 73 74 74 74 74 73 73 73 73 73 72 72 71 70 70 69 68
70 70 70 70 70 70 70 70 70 70 70 71 72 73 73 73 73 73 73 72 72 72 73 73 73 73 73 74 74 74 74 73 73 73 73 73 72 72 71 70 69 68
70 70 70 70 70 70 70 70 70 70 70 70 71 72 73 73 73 73 73 73 72 72 72 73 73 73 73 73 74 74 74 74 74 74 74 73 73 73 73 71 70 69
70 70 70 70 70 70 70 70 70 70 70 70 70 70 72 73 73 73 73 73 73 72 72 72 73 73 73 73 74 74 74 74 74 74 74 74 73 73 73 72 70 69
70 70 70 70 70 70 70 70 70 70 70 70 70 70 70 71 73 73 72 73 73 73 72 72 72 73 73 73 73 74 74 74 74 74 73 73 73 73 73 73 71 70
70 70 70 70 70 70 70 70 70 70 70 70 70 70 69 70 71 72 72 72 72 73 72 72 72 72 73 73 73 73 74 74 74 73 73 73 73 73 73 73 72 71
71 71 71 71 71 70 70 70 70 70 70 70 70 70 70 70 70 71 72 72 72 72 72 72 72 72 72 73 73 73 73 73 73 73 73 73 73 73 73 73 72 72
71 71 71 71 71 70 70 70 70 70 70 70 70 70 70 70 70 70 71 72 72 71 71 72 73 73 70 65 68 73 73 73 73 73 73 73 72 72 72 72 72 72
71 71 71 71 71 71 71 70 70 70 70 70 70 71 71 70 70 70 70 71 72 71 71 71 72 72 66 64 64 66 71 73 73 73 73 73 72 72 71 72 72 72
71 72 72 71 71 71 71 70 70 70 70 70 70 70 71 71 70 70 70 71 71 71 71 71 71 67 64 64 63 63 66 72 72 72 73 72 72 72 72 71 71 72
72 72 71 71 71 71 71 71 70 70 69 69 69 69 70 71 70 70 70 70 71 71 71 72 72 66 63 63 63 63 63 67 72 72 72 72 72 72 72 72 71 71
72 72 71 71 71 71 71 71 70 70 69 69 69 69 69 70 70 70 70 70 70 71 71 71 72 67 62 61 62 62 62 64 72 72 72 72 72 72 72 72 72 71
72 72 71 71 71 71 71 71 70 70 70 69 69 69 68 69 69 70 70 70 70 70 70 71 71 65 61 60 60 60 61 62 71 72 72 72 72 72 73 73 72 72
73 72 72 71 71 71 71 70 71 70 70 69 69 69 68 69 69 70 70 70 70 70 70 70 71 64 61 60 59 59 61 67 70 71 72 72 72 72 73 73 73 73
73 72 72 72 71 71 70 70 70 70 70 70 69 68 68 68 68 69 70 70 71 71 70 70 70 65 60 59 58 59 60 68 70 71 72 72 72 72 72 73 73 73
73 73 72 72 72 71 71 70 70 70 70 70 69 68 68 68 68 68 69 70 70 71 71 70 70 67 59 58 57 57 61 69 70 71 71 72 72 72 72 72 72 71
73 73 72 72 72 72 71 71 71 70 70 71 70 69 68 68 68 68 68 69 70 71 69 70 71 68 57 58 57 57 62 69 71 71 71 71 72 72 72 72 72 71
72 73 73 72 72 72 72 72 72 71 71 71 70 70 69 68 68 68 68 68 69 70 71 71 71 71 63 56 56 56 58 69 71 71 71 71 71 71 72 72 72 72